Home > Time Zones > World Clock > Weather > India > Gonda > Past weeks

Flag for India Weather past 2 weeks in Gonda, Uttar Pradesh, India

Now
91 °F

Duststorm.


Feels Like: 105 °F
Forecast: 84 / 110 °F
Wind: 8 mph from Southeast

Location: Lucknow / Amausi

Current Time: May 27, 2015 at 9:20:49 AM

Latest Report: May 27, 2015 at 8:30 AM


Visibility: 2 mi

Pressure: 29.59 "Hg

Humidity: 63%

Dew point: 77 °F

Location of GondaLocation

Historic Weather in Gonda — Graph

°F

Gonda temperature yesterday

Maximum temperature yesterday: 113 °F (at 3:30 PM)
Minimum temperature yesterday: 88 °F (at 5:00 AM)
Average temperature yesterday: 98 °F

Past Weeks' High & Low Weather Summary

 TemperatureHumidityPressure
High115 °F (May 23, 3:00 PM)79% (May 13, 5:00 AM)29.89 "Hg (May 13, 5:00 AM)
Low77 °F (May 16, 8:00 AM)13% (May 22, 2:30 PM)29.42 "Hg (May 22, 4:30 PM)
Average94 °F43%29.59 "Hg
* Reported May 12 7:30 AM — May 27 7:30 AM, Gonda, Weather by CustomWeather, © 2015

Note: Actual official high and low records may vary slightly from our data, if they occured in-between our weather recording intervals... More about our weather records

Advertising

Gonda weather history for previous 24 hours

 ConditionsComfort  
Time TempWeatherWind HumidityBarometerVisibility
7:30 AM
Wed, May 27
88 °FScattered clouds.8 mph66%29.59 "Hg2 mi
7:00 AM88 °FScattered clouds.9 mph66%29.59 "Hg2 mi
6:30 AM86 °FScattered clouds.9 mph70%29.56 "Hg2 mi
6:00 AM86 °FScattered clouds.7 mph70%29.56 "Hg2 mi
5:30 AM84 °FPassing clouds.7 mph74%29.56 "Hg2 mi
4:00 AM88 °FHaze.7 mph66%29.56 "Hg2 mi
3:00 AM88 °FPassing clouds.9 mph66%29.53 "Hg2 mi
2:00 AM90 °FPassing clouds.12 mph63%29.53 "Hg2 mi
1:00 AM91 °FPassing clouds.12 mph59%29.53 "Hg2 mi
12:00 AM93 °FPassing clouds.5 mph41%29.53 "Hg2 mi
11:00 PM
Tue, May 26
91 °FPassing clouds.2 mph46%29.53 "Hg2 mi
10:00 PM91 °FHaze.No wind44%29.53 "Hg2 mi
9:00 PM93 °FHaze.No wind47%29.53 "Hg2 mi
8:30 PM95 °FHaze.No wind44%29.50 "Hg2 mi
8:00 PM97 °FHaze.2 mph42%29.50 "Hg2 mi
7:30 PM100 °FHaze.2 mph37%29.50 "Hg2 mi
7:00 PM104 °FDuststorm.2 mph29%29.50 "Hg2 mi
6:30 PM106 °FDuststorm.2 mph28%29.47 "Hg3 mi
6:00 PM111 °FDuststorm.2 mph22%29.47 "Hg3 mi
5:30 PM113 °FDuststorm.2 mph20%29.47 "Hg3 mi
5:00 PM113 °FDuststorm.2 mph20%29.47 "Hg3 mi
3:30 PM113 °FDuststorm.2 mph21%29.50 "Hg3 mi
2:30 PM111 °FDuststorm.6 mph24%29.53 "Hg3 mi
1:30 PM111 °FDuststorm.3 mph32%29.56 "Hg3 mi
1:00 PM109 °FDuststorm.2 mph32%29.56 "Hg3 mi
12:30 PM108 °FDuststorm.2 mph36%29.56 "Hg2 mi
12:00 PM108 °FDuststorm.2 mph41%29.59 "Hg2 mi
11:30 AM104 °FDuststorm.2 mph45%29.59 "Hg2 mi
11:00 AM102 °FDuststorm.3 mph48%29.59 "Hg2 mi
10:30 AM99 °FDuststorm.5 mph60%29.59 "Hg2 mi
10:00 AM99 °FDuststorm.6 mph60%29.59 "Hg2 mi
9:30 AM97 °FDuststorm.6 mph63%29.59 "Hg2 mi
9:00 AM95 °FHaze.7 mph67%29.59 "Hg2 mi
Weather by CustomWeather, © 2015

See weather overviewHow to use our weather pages